Location: Ostrava
(49.8330°N, 18.2830°E)
Time: 06:48:11
(UTC+02:00)

Iridium 7 - Visible Passes

Search period start: 27 July 2017 00:00
Search period end: 06 August 2017 00:00
Orbit: 776 x 779 km, 86.4° (Epoch: 26 July)

Date Brightness Start Highest point End Pass type
(mag) Time Alt. Az. Time Alt. Az. Time Alt. Az.
27 Jul 5.8 00:29:08 41° SE 00:30:44 59° E 00:35:53 10° N visible
27 Jul 7.2 02:09:36 17° WSW 02:11:53 22° WNW 02:15:56 10° NNW visible
27 Jul 6.5 23:55:43 28° ESE 23:57:21 35° E 00:02:03 10° NNE visible
28 Jul 6.5 01:36:11 28° WSW 01:38:04 36° WNW 01:42:53 10° N visible
28 Jul 7.1 23:22:18 18° ESE 23:24:07 21° ENE 23:27:56 10° NNE visible
29 Jul 5.8 01:02:46 42° SW 01:04:21 61° W 01:09:33 10° N visible
29 Jul 7.7 22:48:52 10° E 22:50:58 13° ENE 22:53:06 10° NE visible
30 Jul 5.5 00:29:21 49° S 00:30:47 81° E 00:36:03 10° N visible
30 Jul 7.5 02:09:49 13° W 02:12:13 17° WNW 02:15:31 10° NNW visible
30 Jul 6.0 23:55:55 37° SE 23:57:20 47° E 00:02:21 10° NNE visible
31 Jul 7.0 01:36:23 21° WSW 01:38:18 27° WNW 01:42:43 10° NNW visible
31 Jul 6.7 23:22:28 24° ESE 23:24:00 28° E 23:28:25 10° NNE visible
01 Aug 6.2 01:02:57 34° WSW 01:04:32 44° W 01:09:32 10° N visible
01 Aug 7.3 22:49:02 15° E 22:50:48 17° ENE 22:54:07 10° NE visible
02 Aug 5.5 00:29:30 49° SSW 00:30:53 75° W 00:36:09 10° N visible
02 Aug 7.8 02:10:33 10° W 02:12:37 12° WNW 02:14:40 10° NW visible
02 Aug 5.6 23:56:03 48° SSE 23:57:22 65° E 00:02:33 10° N visible
03 Aug 7.4 01:36:31 16° W 01:38:36 20° WNW 01:42:26 10° NNW visible
03 Aug 6.3 23:22:36 32° ESE 23:23:57 38° E 23:28:47 10° NNE visible
04 Aug 6.7 01:03:04 27° WSW 01:04:45 32° WNW 01:09:27 10° NNW visible
04 Aug 6.9 22:49:08 20° ESE 22:50:41 23° ENE 22:54:44 10° NNE visible
05 Aug 5.9 00:29:36 41° SW 00:31:02 54° W 00:36:10 10° N visible
05 Aug 7.5 22:15:40 12° E 22:17:31 14° ENE 22:20:09 10° NE visible
